HAIYANG-1B

Last updated on Sun Jun 21 2026 00:02:51 GMT+0000 (Coordinated Universal Time)

1 31113U 07010A 26171.43105603 .00000067 00000+0 41288-4 0 9995 2 31113 98.3495 153.1505 0013231 186.4668 173.6347 14.31027586 1108
UTC large
Height (km)
Speed (km/s)
/
Latitude / Longitude
Inclination (degrees)
Orbital Period (minutes)
Azimuth
Elevation
Range (km)
Doppler Factor

Next 0 passes for location: London (51.5072 / 0.1276)

No passes found over London.
HAIYANG-1B